Content
SEND FEEDBACK

Daily
Averages
Monthly
Summary
United States of America

ATHENS - OHIO UNIVERSITY, OHIO


Home > North America > United States > Ohio
Elevation: 630 feet     Latitude: 39 20N     Longitude: 082 05W

WEATHER
 
SELECT A DAY
Number of Records: 184,042;   Date Range: 1/26/07 - 8/30/14
 
SHARE

PRINT THIS DATA

[ ← Previous Day ]
WEATHER ALMANAC - JANUARY 31, 2013
[ Next Day → ]
[ °C ]   °F
Weather ElementAverageHighLow
Temperature29 °F36.7 °F (12:35 am)23 °F (11:55 pm)
Dewpoint21.3 °F32 °F (12:35 am)13.6 °F (3:15 pm)
Humidity73.9 %90 % (9:15 pm)51 % (4:35 pm)
Barometer29.82 in29.91 in (3:55 pm)29.48 in (12:35 am)
Wind Speed12.3 mph24.2 mph (2:15 am)
Wind Gust36.8 mph (1:35 am)
Weather ElementAverage
Visibility7.9 mi
Wind DirectionWSW (251.2 °)

Weather ElementTotal
Precipitation---
Heating Degree Days35.2 (Base 65)
Averaged from 34 records on January 31, 2013
WEATHER CONDITIONS BREAKOUT
WIND DIRECTION BREAKOUT
WEATHER BY HOUR - JANUARY 31, 2013
[ °C ]   °F
Local TimeTemperatureDewpointHumidityBarometerVisibilityWind DirectionWind SpeedGust SpeedPrecipitationEventsConditions
12:35 AM36.7 °F32.0 °F83 %29.48 in10.0 miWest (270°)21.9 mph28.8 mphLight Drizzle
12:55 AM34.9 °F31.6 °F88 %29.51 in4.0 miWest (270°)20.7 mph28.8 mphDrizzle
1:15 AM34.2 °F30.0 °F85 %29.53 in7.0 miWest (280°)23.0 mph33.4 mphRainLight Rain
1:35 AM33.8 °F28.0 °F79 %29.55 in10.0 miWest (280°)18.4 mph36.8 mphOvercast
1:55 AM33.8 °F27.1 °F77 %29.57 in10.0 miWest (280°)17.3 mph28.8 mphOvercast
2:15 AM33.6 °F25.2 °F71 %29.58 in10.0 miWest (280°)24.2 mph31.1 mphOvercast
2:35 AM33.3 °F24.3 °F70 %29.59 in10.0 miWest (280°)15.0 mph36.8 mphOvercast
3:15 PM29.1 °F13.6 °F52 %29.89 in10.0 miWSW (250°)23.0 mph27.6 mphOvercast
3:35 PM30.0 °F15.1 °F54 %29.90 in10.0 miWSW (250°)18.4 mph26.5 mphOvercast
3:55 PM28.9 °F19.4 °F68 %29.91 in5.0 miWest (260°)15.0 mph31.1 mphSnowLight Snow
4:15 PM29.1 °F14.7 °F55 %29.90 in10.0 miWSW (250°)17.3 mph29.9 mphScattered Clouds
4:35 PM29.7 °F13.6 °F51 %29.90 in10.0 miWSW (250°)18.4 mph27.6 mphMostly Cloudy
4:55 PM29.3 °F14.4 °F54 %29.90 in10.0 miWSW (250°)17.3 mph25.3 mphMostly Cloudy
5:15 PM29.3 °F15.4 °F56 %29.90 in10.0 miWSW (250°)12.7 mphOvercast
5:35 PM29.1 °F16.5 °F59 %29.90 in10.0 miWSW (250°)15.0 mph23.0 mphMostly Cloudy
5:55 PM28.4 °F16.7 °F62 %29.90 in10.0 miWSW (250°)9.2 mphMostly Cloudy
6:15 PM28.0 °F17.1 °F63 %29.90 in10.0 miSW (230°)8.1 mphScattered Clouds
6:35 PM27.9 °F17.2 °F64 %29.88 in10.0 miSSW (210°)3.5 mphClear
6:55 PM27.5 °F18.0 °F67 %29.90 in10.0 miSW (230°)6.9 mphClear
7:15 PM28.0 °F18.9 °F68 %29.91 in10.0 miSW (230°)5.8 mphMostly Cloudy
7:35 PM27.3 °F21.9 °F80 %29.91 in2.0 miWSW (240°)6.9 mphSnowLight Snow
7:55 PM27.0 °F21.4 °F79 %29.91 in10.0 miWSW (240°)6.9 mphScattered Clouds
8:15 PM27.3 °F21.4 °F78 %29.90 in10.0 miWSW (240°)4.6 mphMostly Cloudy
8:35 PM27.3 °F21.9 °F80 %29.91 in10.0 miWSW (240°)4.6 mphOvercast
8:55 PM27.1 °F23.0 °F84 %29.90 in3.0 miWSW (240°)11.5 mphSnowLight Snow
9:15 PM26.6 °F23.9 °F90 %29.90 in1.8 miWSW (240°)5.8 mphSnowLight Snow
9:35 PM26.6 °F23.9 °F90 %29.90 in4.0 miSW (230°)5.8 mphSnowLight Snow
9:55 PM26.6 °F23.9 °F90 %29.89 in5.0 miSW (230°)5.8 mphSnowLight Snow
10:15 PM26.6 °F23.5 °F88 %29.89 in5.0 miWSW (240°)4.6 mphSnowLight Snow
10:35 PM27.0 °F23.4 °F86 %29.88 in10.0 miSW (230°)6.9 mphOvercast
10:55 PM27.1 °F23.0 °F84 %29.87 in10.0 miSW (230°)8.1 mphOvercast
11:15 PM27.1 °F22.8 °F84 %29.86 in10.0 miWSW (240°)9.2 mphOvercast
11:35 PM23.5 °F20.3 °F87 %29.89 in0.8 miWNW (300°)13.8 mph23.0 mphSnowLight Snow
11:55 PM23.0 °F19.6 °F87 %29.90 in1.8 miWNW (300°)13.8 mph21.9 mphSnowLight Snow
Hourly data recorded from KUNI, located miles away from Athens - Ohio University, Ohio







STORIES FROM OUR PARTNERS